Weather History for KFXE - August, 2014

Change the Weather History Date:

Wednesday, August 27, 2014

  Actual Average Record
Temperature  
Mean Temperature 84 °F -  
Max Temperature 91 °F 91 °F 97 °F (1982)
Min Temperature 78 °F 74 °F 66 °F (1950)
Cooling Degree Days 20    
Growing Degree Days 34 (Base 50)    
Moisture  
Dew Point 73 °F    
Average Humidity 69    
Maximum Humidity 87    
Minimum Humidity 55    
Precipitation  
Precipitation 0.00 in - - ()
Sea Level Pressure  
Sea Level Pressure 29.94 in    
Wind  
Wind Speed 7 mph (NE)    
Max Wind Speed 14 mph    
Max Gust Speed 16 mph    
Visibility 10 miles    
Events      
Averages and records for this station are not official NWS values.
T = Trace of Precipitation, MM = Missing Value Source: NWS Daily Summary

Daily Weather History Graph

Daily Weather History Graph

Search for Another Location

Airport or City:

Trip Planner

Search our weather history database for the weather conditions in past years. The results will help you decide how hot, cold, wet, or windy it might be!

Date:

Astronomy

Aug. 27, 2014 Rise Set
Actual Time 6:58 AM EDT 7:45 PM EDT
Civil Twilight 6:34 AM EDT 8:09 PM EDT
Nautical Twilight 6:07 AM EDT 8:36 PM EDT
Astronomical Twilight 5:38 AM EDT 9:05 PM EDT
Moon 8:38 AM EDT (8/27) 8:54 PM EDT (8/27)
Length of Visible Light 13h 34m
Length of Day
12h 46m
Waxing Crescent, 4% of the Moon is Illuminated
Aug 27
Waxing Crescent
Sep 2
First Quarter
Sep 8
Full
Sep 15
Last Quarter
Sep 24
New

Hourly Weather History & Observations

Time (EDT) Temp. Heat Index Dew Point Humidity Pressure Visibility Wind Dir Wind Speed Gust Speed Precip Events Conditions
12:53 AM 82.0 °F 85.5 °F 69.1 °F 65% 29.90 in 10.0 mi NE 5.8 mph - N/A   Clear
1:53 AM 80.1 °F 83.2 °F 70.0 °F 71% 29.90 in 10.0 mi NNW 3.5 mph - N/A   Clear
2:53 AM 79.0 °F - 71.1 °F 77% 29.89 in 10.0 mi NNW 4.6 mph - N/A   Scattered Clouds
3:53 AM 79.0 °F - 71.1 °F 77% 29.89 in 10.0 mi Calm Calm - N/A   Mostly Cloudy
4:53 AM 78.1 °F - 71.1 °F 79% 29.89 in 10.0 mi NNW 4.6 mph - N/A   Clear
5:53 AM 78.1 °F - 72.0 °F 81% 29.90 in 10.0 mi North 4.6 mph - N/A   Clear
6:53 AM 78.1 °F - 73.0 °F 84% 29.91 in 10.0 mi North 4.6 mph - N/A   Partly Cloudy
7:53 AM 78.1 °F - 73.9 °F 87% 29.94 in 10.0 mi NNW 3.5 mph - N/A   Scattered Clouds
8:53 AM 84.9 °F 93.3 °F 75.0 °F 72% 29.95 in 10.0 mi North 3.5 mph - N/A   Clear
9:53 AM 87.1 °F 94.5 °F 73.0 °F 63% 29.96 in 10.0 mi East 9.2 mph - N/A   Scattered Clouds
10:53 AM 89.1 °F 96.0 °F 72.0 °F 57% 29.96 in 10.0 mi ENE 11.5 mph 16.1 mph N/A   Scattered Clouds
11:53 AM 89.1 °F 96.0 °F 72.0 °F 57% 29.96 in 10.0 mi ENE 8.1 mph - N/A   Partly Cloudy
12:53 PM 90.0 °F 96.9 °F 72.0 °F 55% 29.96 in 10.0 mi NNE 8.1 mph - N/A   Partly Cloudy
1:53 PM 91.0 °F 99.3 °F 73.0 °F 55% 29.95 in 10.0 mi NE 10.4 mph - N/A   Scattered Clouds
2:53 PM 90.0 °F 99.0 °F 73.9 °F 59% 29.94 in 10.0 mi East 12.7 mph - N/A   Scattered Clouds
3:53 PM 89.1 °F 98.0 °F 73.9 °F 61% 29.93 in 10.0 mi East 13.8 mph - N/A   Clear
4:53 PM 89.1 °F 98.0 °F 73.9 °F 61% 29.93 in 10.0 mi East 13.8 mph - N/A   Clear
5:53 PM 88.0 °F 96.5 °F 73.9 °F 63% 29.94 in 10.0 mi East 13.8 mph - N/A   Clear
6:53 PM 86.0 °F 93.8 °F 73.9 °F 67% 29.94 in 10.0 mi East 11.5 mph - N/A   Clear
7:53 PM 84.9 °F 92.1 °F 73.9 °F 69% 29.96 in 10.0 mi East 11.5 mph - N/A   Clear
8:53 PM 84.0 °F 91.2 °F 73.9 °F 72% 29.97 in 10.0 mi East 9.2 mph - N/A   Clear
9:53 PM 82.9 °F 89.4 °F 73.9 °F 74% 29.99 in 10.0 mi ENE 6.9 mph - N/A   Clear
10:53 PM 82.9 °F 89.4 °F 73.9 °F 74% 29.99 in 10.0 mi ENE 8.1 mph - N/A   Clear
11:53 PM 82.0 °F 87.9 °F 73.9 °F 76% 30.00 in 10.0 mi East 8.1 mph - N/A   Clear